EW9174 Weather Reports


time (UTC)temp
F
wind
direction
speed
knots
gust
knots
rain 1hr
in
rain 24hr
in
rain mn
in
humidity
%
barometer
mb
20260906213020 95 155 0.0 0.9 0.00 0.00 0.00 34 1000.7
20260906211517 95 156 0.0 0.9 0.00 0.00 0.00 35 1000.8
20260906210013 94 163 0.0 1.7 0.00 0.00 0.00 37 1000.9
20260906204510 93 76 0.0 1.7 0.00 0.00 0.00 39 1001.1
20260906203009 93 79 0.0 1.7 0.00 0.00 0.00 38 1001.3
20260906201507 94 80 0.0 2.6 0.00 0.00 0.00 39 1001.4
20260906200005 93 77 0.0 1.7 0.00 0.00 0.00 41 1001.6
20260906194600 92 76 0.0 0.9 0.00 0.00 0.00 42 1001.8
20260906193059 91 77 0.0 1.7 0.00 0.00 0.00 42 1002.1
20260906191554 91 80 0.0 2.6 0.00 0.00 0.00 43 1002.4
20260906190108 90 90 0.0 1.7 0.00 0.00 0.00 43 1002.8
20260906184552 89 75 0.0 0.9 0.00 0.00 0.00 43 1003.3
20260906183049 88 75 0.0 2.6 0.00 0.00 0.00 45 1003.6
20260906181540 87 76 0.0 0.9 0.00 0.00 0.00 48 1003.9
20260906180038 86 78 0.0 1.7 0.00 0.00 0.00 46 1004.2
20260906174535 85 80 0.0 1.7 0.00 0.00 0.00 49 1004.5
20260906173029 84 81 0.0 0.9 0.00 0.00 0.00 50 1004.6
20260906171526 82 81 0.0 1.7 0.00 0.00 0.00 50 1005.0
20260906170030 81 56 0.0 0.9 0.00 0.00 0.00 53 1005.0
20260906164518 80 56 0.0 1.7 0.00 0.00 0.00 55 1005.1
20260906163015 79 56 0.0 1.7 0.00 0.00 0.00 56 1005.3
20260906161520 79 56 0.0 1.7 0.00 0.00 0.00 57 1005.4
20260906160009 77 56 0.0 0.9 0.00 0.00 0.00 60 1005.4
20260906154511 76 56 0.0 3.5 0.00 0.00 0.00 61 1005.5
20260906153002 75 57 0.0 0.9 0.00 0.00 0.00 65 1005.4
20260906151559 74 57 0.0 0.9 0.00 0.00 0.00 65 1005.5
20260906150059 73 57 0.0 0.9 0.00 0.00 0.00 67 1005.7
20260906144555 72 57 0.0 0.9 0.00 0.00 0.00 68 1005.8
20260906143054 70 57 0.0 1.7 0.00 0.00 0.00 69 1005.8
20260906141554 69 57 0.0 2.6 0.00 0.00 0.00 70 1005.6
20260906140052 67 57 0.0 2.6 0.00 0.00 0.00 73 1005.5
20260906134557 65 57 0.0 0.9 0.00 0.00 0.00 76 1005.4
20260906133109 64 57 0.0 0.0 0.00 0.00 0.00 76 1005.4
20260906131548 65 57 0.0 0.0 0.00 0.00 0.00 76 1005.1
20260906130046 64 57 0.0 1.7 0.00 0.00 0.00 75 1004.5
20260906124543 64 57 0.0 1.7 0.00 0.00 0.00 75 1004.3
20260906123042 64 59 0.0 1.7 0.00 0.00 0.00 75 1004.2
20260906121539 64 58 0.9 3.5 0.00 0.00 0.00 76 1004.0
20260906120041 64 59 0.0 2.6 0.00 0.00 0.00 75 1003.9
20260906114536 64 60 0.0 0.9 0.00 0.00 0.00 75 1003.8
20260906113035 64 61 0.0 1.7 0.00 0.00 0.00 74 1003.8
20260906111538 65 61 0.0 2.6 0.00 0.00 0.00 74 1003.7
20260906110035 65 61 0.0 2.6 0.00 0.00 0.00 73 1003.7
20260906104535 65 61 0.0 1.7 0.00 0.00 0.00 72 1003.6
20260906103032 66 61 0.0 2.6 0.00 0.00 0.00 72 1003.8
20260906094513 67 63 0.0 3.5 0.00 0.00 0.00 68 1003.5
20260906093010 68 63 0.0 2.6 0.00 0.00 0.00 66 1003.5
20260906091508 69 93 0.0 1.7 0.00 0.00 0.00 66 1003.4
20260906090007 69 94 0.0 2.6 0.00 0.00 0.00 66 1003.4
20260906084506 69 96 0.0 1.7 0.00 0.00 0.00 65 1003.3
20260906083005 70 96 0.0 0.9 0.00 0.00 0.00 64 1003.5
20260906081504 70 96 0.0 1.7 0.00 0.00 0.00 64 1003.6
20260906080003 70 98 0.0 1.7 0.00 0.00 0.00 65 1003.5
20260906074603 69 99 0.0 0.9 0.00 0.00 0.00 62 1003.3
20260906073057 69 99 0.0 1.7 0.00 0.00 0.00 60 1003.1
20260906071556 69 100 0.0 0.9 0.00 0.00 0.00 59 1002.9
20260906070052 70 100 0.0 0.9 0.00 0.00 0.00 58 1002.9
20260906064549 71 100 0.0 1.7 0.00 0.00 0.00 57 1002.9
20260906063047 71 100 0.0 0.9 0.00 0.00 0.00 56 1002.8
20260906061545 72 100 0.0 0.0 0.00 0.00 0.00 57 1002.8
20260906060041 73 100 0.0 0.0 0.00 0.00 0.00 55 1002.8
20260906054542 73 100 0.0 0.0 0.00 0.00 0.00 55 1002.9
20260906053043 74 100 0.0 0.0 0.00 0.00 0.00 53 1002.8
20260906051537 75 100 0.0 0.0 0.00 0.00 0.00 51 1003.0
20260906050036 75 100 0.0 0.9 0.00 0.00 0.00 50 1003.4
20260906044535 76 103 0.0 0.0 0.00 0.00 0.00 48 1003.4
20260906043035 76 105 0.0 0.9 0.00 0.00 0.00 47 1003.0
20260906041536 76 105 0.0 0.9 0.00 0.00 0.00 47 1002.9
20260906040040 76 115 0.0 0.0 0.00 0.00 0.00 47 1002.7
20260906034541 77 115 0.0 0.0 0.00 0.00 0.00 48 1002.8
20260906033032 78 115 0.0 0.0 0.00 0.00 0.00 47 1002.7
20260906031533 79 115 0.0 0.9 0.00 0.00 0.00 47 1002.5
20260906030031 80 115 0.0 0.0 0.00 0.00 0.00 46 1002.2
20260906024529 81 121 0.0 0.0 0.00 0.00 0.00 47 1002.0
20260906023030 81 122 0.0 0.0 0.00 0.00 0.00 43 1001.7
20260906021529 81 122 0.0 0.0 0.00 0.00 0.00 40 1001.4
20260906020032 83 122 0.0 0.0 0.00 0.00 0.00 39 1000.9
20260906014540 85 122 0.0 0.0 0.00 0.00 0.00 37 1000.7
20260906013031 88 122 0.0 0.0 0.00 0.00 0.00 36 1000.5
20260906011527 92 122 0.0 0.0 0.00 0.00 0.00 33 1000.4
20260906010027 95 122 0.0 0.0 0.00 0.00 0.00 31 1000.4
20260906004526 95 122 0.0 0.0 0.00 0.00 0.00 30 1000.4
20260906003025 95 122 0.0 0.0 0.00 0.00 0.00 31 1000.5
20260906001524 94 122 0.0 0.9 0.00 0.00 0.00 27 1000.5
20260906000024 92 122 0.0 2.6 0.00 0.00 0.00 31 1000.5
20260905234522 93 119 0.0 2.6 0.00 0.00 0.00 29 1000.4
20260905233033 94 46 0.0 0.9 0.00 0.00 0.00 28 1000.2
20260905231523 94 46 0.0 0.9 0.00 0.00 0.00 31 1000.2
20260905230020 94 46 0.0 0.9 0.00 0.00 0.00 27 1000.3
20260905224521 96 47 0.0 0.9 0.00 0.00 0.00 26 1000.4
20260905223018 99 47 0.0 0.9 0.00 0.00 0.00 23 1000.3
20260905221529 101 47 0.0 0.9 0.00 0.00 0.00 22 1000.4
20260905220017 101 46 0.0 0.9 0.00 0.00 0.00 22 1000.4
20260905214515 102 46 0.0 0.9 0.00 0.00 0.00 22 1000.5